Theta_e
306 308 310 310 310 310 310 309 308 306 304 304 304 303 303 302 301 301 303 304 306 308 310 310 309 310 313 315 314 315 319 319 319 320 320 318 320 319 318 319 319 320 320 320 320
306 308 310 310 309 308 307 306 305 304 303 304 304 304 303 301 303 311 314 306 305 306 312 312 311 311 311 312 313 316 318 318 317 318 319 318 318 318 318 318 318 318 319 319 320
304 307 309 307 306 305 305 305 305 305 305 305 305 305 302 302 314 316 313 311 305 309 311 312 313 311 311 312 313 313 316 315 315 316 317 317 317 317 317 318 318 318 318 319 318
308 306 309 307 308 308 308 308 307 305 304 304 305 305 301 303 317 315 308 306 308 306 312 313 310 311 311 314 312 315 314 315 315 315 316 316 315 315 315 316 316 316 316 317 317
309 306 307 308 308 308 309 309 309 306 303 303 303 302 301 303 306 315 309 312 314 314 314 309 312 311 312 311 311 313 313 312 313 312 312 313 313 315 315 315 316 316 316 316 318
309 309 306 308 307 309 309 310 312 309 305 301 301 301 302 306 311 315 311 310 310 311 308 314 315 314 314 313 313 311 311 312 312 313 313 314 315 313 315 315 315 315 316 316 317
311 309 309 308 307 309 312 311 312 312 311 304 301 301 302 304 315 315 313 310 310 310 316 316 314 312 312 313 311 311 313 312 313 314 314 313 315 315 315 314 314 315 316 316 316
313 312 311 310 309 308 311 313 313 313 314 308 303 303 306 305 315 315 314 312 310 313 315 315 314 314 312 310 311 312 312 314 313 312 313 312 315 315 313 314 315 314 315 316 316
312 311 313 311 310 309 309 312 313 315 315 312 309 309 313 309 311 315 315 313 313 313 314 314 314 311 311 313 313 311 312 313 314 313 313 313 314 315 315 314 315 315 315 315 315
312 310 311 313 310 310 309 312 315 315 315 314 314 312 313 316 317 315 314 314 314 314 312 313 311 314 312 313 312 312 313 312 313 315 314 314 315 315 314 314 314 315 315 314 315
311 309 309 313 311 310 310 314 315 314 314 315 314 314 314 316 317 316 315 313 313 312 315 311 314 315 315 313 312 312 312 313 314 314 313 315 316 316 315 314 315 316 316 315 314
308 308 308 313 311 311 310 315 315 314 314 314 314 314 315 315 315 316 314 313 313 314 312 314 315 315 313 312 312 313 314 315 314 314 314 316 316 316 315 315 315 315 315 316 316
306 307 308 313 312 309 309 315 315 314 315 314 314 314 314 314 315 315 312 312 312 312 313 314 314 311 312 313 313 314 314 315 315 315 316 316 316 316 316 314 314 315 315 315 315
305 304 309 313 312 310 311 315 315 315 316 317 316 316 314 315 316 316 313 312 313 314 313 314 314 313 313 313 314 315 314 314 316 318 317 316 319 317 317 317 316 315 315 315 315
303 307 310 313 312 310 313 315 315 315 320 319 316 316 316 316 314 315 316 312 314 314 313 315 313 314 314 314 313 315 316 317 317 318 317 317 317 316 317 316 317 317 315 315 315
308 310 312 314 309 308 314 315 314 319 323 317 315 315 316 315 314 313 315 314 313 314 313 314 312 313 314 315 316 317 317 318 316 317 317 316 317 317 316 317 316 315 314 314 316
309 312 314 312 310 312 314 315 316 318 317 315 315 314 313 313 314 314 314 315 316 315 315 314 314 314 316 317 317 318 318 317 317 317 317 315 316 315 316 315 316 316 316 316 316
312 313 312 310 310 312 314 316 316 316 316 314 313 313 313 312 313 313 314 314 315 313 314 316 315 317 317 317 316 318 316 315 316 313 314 314 315 314 315 316 316 316 316 316 316
313 315 315 310 313 314 315 317 315 318 314 313 313 313 312 312 312 313 313 314 316 316 316 318 317 316 316 317 316 317 316 317 319 315 315 313 314 316 316 318 317 316 316 316 316
311 315 315 315 316 314 312 310 316 314 312 313 313 313 316 314 314 312 313 314 315 314 313 315 314 313 315 316 316 317 316 317 316 316 314 313 317 317 317 318 317 317 315 315 315
311 313 311 316 316 312 314 314 314 313 312 313 313 314 313 313 312 313 313 313 314 314 313 315 314 313 313 314 313 316 317 317 315 315 316 315 314 316 316 317 316 315 314 313 313
311 313 310 317 315 308 313 312 312 314 313 314 312 311 313 313 314 314 313 312 313 314 315 313 316 315 313 311 310 312 312 313 315 314 317 316 314 313 316 315 314 315 314 313 312
309 309 310 314 315 312 311 312 313 314 314 311 315 313 310 310 311 311 312 311 311 314 315 314 315 313 312 312 311 314 314 314 315 314 314 315 313 314 315 314 313 314 314 312 311
308 310 308 308 307 309 309 312 313 312 312 312 313 311 312 311 310 310 310 311 311 314 314 313 313 313 312 311 312 312 312 313 313 314 313 312 312 313 314 314 314 314 312 311 311
308 306 305 309 309 308 307 310 312 313 313 312 311 312 312 314 313 311 309 310 310 315 310 312 314 313 312 312 311 311 311 311 313 313 313 313 314 314 315 315 314 312 311 310 310
307 307 306 306 306 307 308 311 311 312 311 312 312 312 312 311 310 309 309 309 308 309 312 310 314 313 312 311 311 311 311 312 312 312 312 313 315 313 313 312 312 312 311 310 310
307 306 306 306 307 307 309 310 310 308 309 309 310 310 310 310 309 309 309 308 308 309 311 311 312 311 309 310 311 312 312 312 312 313 315 315 314 313 314 313 311 309 309 308 308
Wind_Speed
23 20 18 16 15 13 12 11 9 9 10 9 8 7 9 8 11 10 12 8 11 10 7 9 13 15 13 8 6 6 5 7 8 7 4 2 3 6 7 12 11 7 13 15 19
25 22 18 17 15 14 12 10 9 8 8 8 8 8 7 8 10 4 2 7 11 18 12 12 15 16 8 7 6 6 5 7 4 6 6 11 11 14 8 13 16 17 18 18 16
27 23 20 17 16 14 13 11 9 8 7 7 7 8 7 7 2 3 3 8 9 21 13 11 13 11 5 6 6 5 6 4 6 10 10 11 13 14 14 16 16 15 21 19 22
30 25 21 18 15 14 12 11 10 9 7 6 6 7 6 2 3 4 4 12 15 17 15 13 12 8 6 7 6 4 6 8 6 10 11 12 14 12 16 21 22 21 23 25 24
31 27 23 18 15 14 12 12 10 9 7 5 4 4 4 3 1 5 8 12 13 14 13 12 12 6 5 4 6 5 3 5 9 9 12 16 16 15 15 16 17 19 21 23 23
29 29 26 21 16 14 12 10 10 10 9 6 3 3 2 2 4 6 7 8 9 14 14 14 7 5 6 4 4 7 3 3 6 9 10 13 18 5 7 16 16 17 19 20 22
29 28 28 25 19 14 12 11 11 10 10 7 4 4 6 4 7 8 8 6 11 15 13 7 5 3 5 5 3 3 3 3 9 5 6 6 15 10 15 9 10 17 20 21 21
30 30 28 26 23 15 12 11 14 11 9 7 5 6 4 6 9 9 10 9 11 10 7 5 4 2 2 6 3 1 1 3 2 4 3 4 14 12 5 9 17 16 18 19 22
31 32 29 27 25 16 12 13 14 10 8 6 5 4 3 5 9 10 9 8 10 6 4 5 1 3 3 3 0 3 1 1 5 4 6 4 9 8 23 24 20 16 15 18 20
33 32 32 27 26 18 11 11 12 10 5 5 8 4 1 5 4 6 11 10 6 5 6 4 3 3 3 4 4 3 2 3 7 5 9 15 16 14 22 21 19 17 16 21 24
32 31 33 28 26 18 8 6 6 3 6 8 4 7 8 3 3 6 13 14 6 3 4 2 5 9 8 7 3 3 4 7 10 12 5 14 15 13 19 17 18 19 19 16 23
31 32 32 30 25 16 7 3 1 6 8 16 17 19 15 4 2 5 9 8 5 6 3 3 9 10 6 5 6 6 7 10 10 10 5 15 18 17 13 14 19 20 21 23 18
30 30 34 28 23 8 7 4 2 8 4 6 5 5 10 13 6 9 14 9 4 6 8 8 2 8 7 6 7 8 7 9 12 9 11 17 22 14 9 15 18 19 21 23 29
29 31 34 26 10 7 3 6 4 6 2 2 2 3 10 7 4 12 15 9 4 9 7 7 6 8 5 7 9 11 6 7 6 9 12 11 18 16 17 19 15 21 21 22 24
29 30 32 20 12 2 6 1 4 0 1 2 3 6 11 6 2 2 15 10 9 6 5 3 3 3 4 5 8 8 1 5 8 12 11 14 17 15 13 16 20 17 27 29 20
31 30 26 13 3 7 4 1 3 1 2 3 4 3 4 2 1 4 4 6 2 5 7 8 1 4 5 2 1 2 6 8 3 8 14 17 15 16 17 16 13 15 19 15 16
34 26 12 3 7 8 2 4 1 1 6 6 3 1 1 0 2 0 3 5 6 4 9 7 9 6 3 5 2 1 3 8 9 10 15 5 14 18 24 22 16 12 10 11 13
32 13 4 7 8 3 3 2 1 2 4 6 4 4 2 4 2 2 2 3 1 2 2 4 5 3 3 2 1 2 2 4 10 13 19 15 10 8 11 11 6 8 11 13 15
16 9 10 7 7 4 2 2 2 3 5 7 7 2 2 4 5 6 4 2 3 5 4 3 3 2 3 2 1 4 4 2 5 9 9 7 12 18 2 10 13 14 16 16 16
10 8 13 6 4 3 2 2 2 6 7 2 2 2 7 3 5 3 3 2 3 1 1 2 4 2 2 4 5 2 7 2 1 4 6 8 12 7 9 11 13 15 17 18 20
8 4 13 1 3 3 2 1 1 7 11 5 5 4 1 0 2 4 5 1 3 3 2 4 3 1 2 5 6 3 4 2 0 3 4 8 6 4 7 6 10 12 13 17 18
8 2 14 1 3 2 1 4 4 4 6 4 6 7 7 9 10 9 8 4 2 5 4 2 3 4 6 2 4 6 7 10 5 5 6 7 15 10 6 6 15 13 13 15 16
9 5 10 2 2 2 5 4 3 4 4 3 4 4 7 4 4 6 6 4 5 5 7 7 3 3 3 4 3 5 8 7 2 1 13 10 9 1 8 18 24 14 14 17 19
7 4 7 11 7 4 5 3 2 8 2 3 3 2 1 8 6 5 1 2 6 3 2 10 5 9 8 7 2 6 9 11 11 9 14 18 24 22 19 18 16 16 17 21 24
8 2 3 4 4 6 3 3 6 4 3 3 2 2 6 5 5 9 11 8 5 4 2 3 7 7 10 11 9 14 17 16 17 18 15 20 20 21 19 16 13 16 20 23 27
3 2 2 2 4 5 3 2 6 3 3 1 4 7 9 6 8 6 10 10 10 5 4 2 5 2 10 12 14 18 19 18 18 17 19 20 18 5 7 12 16 20 26 31 32
4 2 1 0 4 4 1 4 5 10 5 6 8 7 11 13 20 22 20 24 17 7 5 3 3 2 6 2 9 13 9 11 10 10 10 13 15 16 18 16 21 26 28 33 34
Wind_Direction
1 359 355 346 340 335 332 324 319 313 306 296 290 290 290 291 274 266 262 247 216 197 177 169 179 193 189 181 165 154 208 221 220 210 217 285 298 296 304 287 291 272 285 301 319
6 2 2 356 349 343 340 333 326 325 317 306 301 288 287 283 293 297 249 213 197 187 167 152 152 158 151 158 170 189 218 216 207 230 251 274 287 293 288 282 285 291 283 294 309
7 5 1 1 357 354 351 344 337 330 327 316 304 297 293 316 44 38 327 189 177 165 164 159 155 150 136 152 173 160 226 196 218 233 258 269 272 269 275 274 267 269 289 291 295
7 5 4 1 2 359 358 354 346 341 335 321 305 301 301 322 82 35 66 155 147 165 166 158 152 145 153 177 167 183 223 219 270 250 262 264 277 269 261 267 276 272 281 286 285
11 9 5 2 358 356 357 1 359 352 344 330 314 306 300 284 150 106 114 143 156 164 171 166 156 149 165 151 144 194 229 208 251 262 254 265 261 261 273 267 276 280 272 276 274
12 13 7 0 353 350 347 354 0 358 350 342 327 312 292 256 152 145 137 154 167 170 163 152 155 154 126 144 178 161 211 251 273 262 255 258 267 248 265 291 280 284 285 284 279
7 7 6 1 349 341 343 337 340 336 343 335 322 314 270 199 159 160 155 149 146 153 151 136 103 114 137 134 139 144 262 270 234 271 260 261 273 240 271 285 292 296 289 287 289
4 357 355 354 350 332 327 329 327 320 315 316 312 312 254 193 184 174 172 170 164 163 132 122 76 99 102 127 69 107 62 292 12 307 271 220 271 297 292 304 305 298 288 284 278
358 357 347 345 345 329 313 318 325 312 299 287 302 313 269 180 194 190 184 166 160 165 157 176 334 100 105 118 318 35 239 325 312 241 288 239 294 299 300 299 297 293 289 294 294
346 348 348 338 338 332 303 314 321 312 279 268 276 294 197 134 146 198 199 172 146 138 112 133 121 166 129 190 248 167 246 230 280 281 287 285 287 287 290 289 289 285 280 289 289
337 339 342 338 331 325 284 312 340 321 283 243 248 275 274 284 235 186 192 198 198 101 177 92 217 227 225 212 213 226 237 267 274 278 273 278 288 289 290 292 285 288 288 281 289
334 334 336 337 328 315 246 228 251 313 300 293 261 254 237 226 333 174 172 166 163 196 140 214 255 262 205 191 214 226 268 283 280 264 238 289 287 295 270 272 273 273 283 293 290
333 335 333 336 333 323 210 181 299 330 286 295 251 240 230 220 226 205 175 170 173 185 203 226 178 111 169 205 221 247 257 276 289 303 278 286 286 279 266 259 261 266 268 273 282
331 331 331 334 340 338 185 179 306 314 325 266 243 169 160 168 220 212 190 171 188 218 191 244 236 244 228 237 213 270 209 263 275 307 302 345 295 289 294 285 274 268 263 264 271
328 330 325 327 314 254 151 179 314 305 90 11 83 136 163 187 130 153 199 203 208 183 186 204 199 205 242 249 187 281 173 264 281 284 293 281 276 289 278 275 284 280 277 279 279
330 332 318 325 355 155 156 290 130 231 78 58 120 150 160 243 6 116 159 206 222 216 239 258 221 238 265 96 220 15 290 283 269 278 263 278 267 293 297 299 298 286 286 296 298
336 332 319 326 120 142 151 145 139 230 336 2 24 101 184 147 137 210 147 182 221 210 244 265 255 253 193 227 122 183 306 288 271 261 276 331 300 279 297 302 300 309 324 343 339
345 349 51 123 147 117 153 123 137 28 5 353 352 343 81 358 38 30 126 203 163 153 209 253 262 174 128 227 205 145 251 263 291 293 298 304 264 280 346 14 9 3 356 340 1
12 64 58 97 116 51 169 126 84 56 359 336 321 61 48 50 12 359 3 290 207 189 221 199 249 89 58 128 217 150 228 76 289 276 285 270 282 282 345 10 3 2 4 1 337
14 57 39 107 74 11 85 115 104 48 345 311 312 63 200 299 334 338 250 227 190 158 295 170 267 1 85 154 68 247 142 214 167 282 277 291 288 285 327 339 343 353 355 350 356
21 65 5 133 9 32 97 84 59 37 28 358 338 265 110 115 216 264 255 279 232 156 111 151 224 153 238 216 234 179 202 158 195 245 273 295 286 265 292 309 330 338 345 350 351
17 53 6 109 22 15 59 341 331 357 9 41 358 333 260 265 273 254 257 234 312 179 190 145 175 234 244 143 280 239 240 225 225 216 237 284 280 269 245 308 331 325 330 337 339
359 333 8 360 32 24 336 336 325 1 16 23 238 272 331 314 244 270 227 105 43 191 185 177 194 256 198 157 174 210 194 198 190 290 254 264 267 245 261 295 312 307 322 331 334
4 1 13 53 56 18 349 306 308 348 26 324 266 283 283 261 265 269 313 143 347 305 200 168 176 239 259 288 188 240 231 231 246 263 271 254 276 291 300 304 305 311 323 326 324
19 65 25 351 11 342 294 307 305 319 18 360 306 261 239 256 299 267 298 308 246 213 120 213 243 225 251 266 255 267 270 262 248 256 253 274 286 300 308 309 306 308 312 316 317
35 14 356 312 295 327 302 282 292 13 347 312 251 281 271 261 218 277 307 299 271 256 206 178 235 223 270 269 268 275 269 261 255 253 263 270 283 325 306 300 301 309 314 312 310
344 356 16 307 334 320 284 352 335 337 279 249 294 301 267 257 259 257 278 276 260 267 194 202 198 262 281 297 301 273 272 261 258 245 256 270 296 312 306 308 307 307 304 301 303